Burnet, TX

9:06 AM CST on December 05, 2016 (GMT -0600)
Burnet Municipal-Craddock

Weather History for KBMQ - October, 2012

Change the Weather History Date:

Monday, October 29, 2012

  Actual Average Record
Temperature  
Mean Temperature 52 °F -  
Max Temperature 68 °F 71 °F 86 °F (2004)
Min Temperature 37 °F 53 °F 36 °F (2011)
Degree Days  
Heating Degree Days 12    
Growing Degree Days 2 (Base 50)    
Moisture  
Dew Point 31 °F    
Average Humidity 46    
Maximum Humidity 76    
Minimum Humidity 22    
Precipitation  
Precipitation 0.00 in - - ()
Sea Level Pressure  
Sea Level Pressure 30.22 in    
Wind  
Wind Speed 3 mph (NE)    
Max Wind Speed 7 mph    
Max Gust Speed -    
Visibility 10 miles    
Events      
Averages and records for this station are not official NWS values.
T = Trace of Precipitation, MM = Missing Value Source: NWS Daily Summary

Daily Weather History Graph

Daily Weather History Graph

Search for Another Location

Airport or City:

Trip Planner

Search our weather history database for the weather conditions in past years. The results will help you decide how hot, cold, wet, or windy it might be!

Date:

Astronomy

Oct. 29, 2012 Rise Set
Actual Time 7:45 AM CDT 6:46 PM CDT
Civil Twilight 7:21 AM CDT 7:11 PM CDT
Nautical Twilight 6:52 AM CDT 7:40 PM CDT
Astronomical Twilight 6:24 AM CDT 8:08 PM CDT
Moon 6:42 PM CDT (10/29) 7:35 AM CDT (10/29)
Length of Visible Light 11h 50m
Length of Day
11h 01m
Full, 100% of the Moon is Illuminated
Oct 29
Full
Oct 29
Full
Nov 6
Last Quarter
Nov 13
New
Nov 20
First Quarter

Hourly Weather History & Observations

Time (CDT) Temp. Windchill Dew Point Humidity Pressure Visibility Wind Dir Wind Speed Gust Speed Precip Events Conditions
12:53 AM 48.0 °F - 28.9 °F 48% 30.24 in 10.0 mi NNE 3.5 mph - N/A   Clear
1:53 AM 46.0 °F - 30.0 °F 54% 30.25 in 10.0 mi Calm Calm - N/A   Clear
2:53 AM 43.0 °F 40.3 °F 30.9 °F 62% 30.25 in 10.0 mi NNE 4.6 mph - N/A   Clear
3:53 AM 41.0 °F 38.0 °F 32.0 °F 70% 30.25 in 10.0 mi NE 4.6 mph - N/A   Clear
4:53 AM 39.9 °F - 30.9 °F 70% 30.24 in 10.0 mi Calm Calm - N/A   Clear
5:53 AM 39.9 °F 36.7 °F 30.9 °F 70% 30.26 in 10.0 mi NNE 4.6 mph - N/A   Clear
6:53 AM 39.0 °F 36.8 °F 30.9 °F 73% 30.27 in 10.0 mi NNE 3.5 mph - N/A   Clear
7:53 AM 37.9 °F 35.5 °F 30.9 °F 76% 30.28 in 10.0 mi NNE 3.5 mph - N/A   Clear
8:53 AM 48.0 °F - 28.9 °F 48% 30.31 in 10.0 mi Calm Calm - N/A   Clear
9:53 AM 52.0 °F - 30.9 °F 45% 30.32 in 10.0 mi Variable 3.5 mph - N/A   Clear
10:53 AM 57.0 °F - 30.9 °F 37% 30.30 in 10.0 mi South 4.6 mph - N/A   Clear
11:53 AM 60.1 °F - 32.0 °F 35% 30.28 in 10.0 mi Calm Calm - N/A   Clear
12:53 PM 63.0 °F - 33.1 °F 33% 30.25 in 10.0 mi Variable 3.5 mph - N/A   Clear
1:53 PM 64.9 °F - 30.9 °F 28% 30.22 in 10.0 mi Variable 4.6 mph - N/A   Clear
2:53 PM 66.0 °F - 27.0 °F 23% 30.19 in 10.0 mi WSW 3.5 mph - N/A   Clear
3:53 PM 66.9 °F - 28.0 °F 23% 30.17 in 10.0 mi Variable 3.5 mph - N/A   Clear
4:53 PM 68.0 °F - 28.0 °F 22% 30.15 in 10.0 mi Variable 4.6 mph - N/A   Clear
5:53 PM 66.9 °F - 27.0 °F 22% 30.14 in 10.0 mi South 6.9 mph - N/A   Clear
6:53 PM 63.0 °F - 30.9 °F 30% 30.14 in 10.0 mi SSE 4.6 mph - N/A   Clear
7:53 PM 57.9 °F - 33.1 °F 39% 30.15 in 10.0 mi Calm Calm - N/A   Clear
8:53 PM 55.0 °F - 33.1 °F 43% 30.15 in 10.0 mi Calm Calm - N/A   Clear
9:53 PM 54.0 °F - 33.1 °F 45% 30.15 in 10.0 mi Calm Calm - N/A   Clear
10:53 PM 53.1 °F - 33.1 °F 47% 30.14 in 10.0 mi Calm Calm - N/A   Clear
11:53 PM 50.0 °F - 34.0 °F 54% 30.14 in 10.0 mi Calm Calm - N/A   Clear